Time,TemperatureF,DewpointF,PressureIn,WindDirection,WindDirectionDegrees,WindSpeedMPH,WindSpeedGustMPH,Humidity,HourlyPrecipIn,Conditions,Clouds,dailyrainin,SoftwareType,DateUTC
2013-08-19 00:01:00,63.5,58.3,30.13,West,263,0.0,0.0,83,0.00,CLR,,0.00,WeatherDisplay:10.37,2013-08-19 04:01:00,
2013-08-19 00:02:00,63.4,58.2,30.13,West,263,0.0,0.0,83,0.00,CLR,,0.00,WeatherDisplay:10.37,2013-08-19 04:02:00,
2013-08-19 00:03:00,63.5,58.3,30.13,West,263,0.0,0.0,83,0.00,CLR,,0.00,WeatherDisplay:10.37,2013-08-19 04:03:00,
2013-08-19 00:05:00,63.3,58.1,30.13,WNW,298,3.5,3.5,83,0.00,CLR,,0.00,WeatherDisplay:10.37,2013-08-19 04:05:00,
2013-08-19 00:06:00,63.3,58.1,30.13,SSW,205,3.7,3.7,83,0.00,CLR,,0.00,WeatherDisplay:10.37,2013-08-19 04:06:00,
2013-08-19 00:11:00,63.1,57.9,30.12,WNW,287,2.4,2.4,83,0.00,CLR,,0.00,WeatherDisplay:10.37,2013-08-19 04:11:00,
2013-08-19 00:16:00,62.7,57.8,30.12,WNW,291,2.5,2.5,84,0.00,CLR,,0.00,WeatherDisplay:10.37,2013-08-19 04:16:00,
2013-08-19 00:21:00,62.5,57.6,30.12,WNW,284,4.0,4.0,84,0.00,CLR,,0.00,WeatherDisplay:10.37,2013-08-19 04:21:00,
2013-08-19 00:26:00,62.2,57.3,30.11,WSW,247,2.7,2.7,84,0.00,CLR,,0.00,WeatherDisplay:10.37,2013-08-19 04:26:00,
2013-08-19 00:31:00,62.0,57.1,30.11,WSW,247,0.0,0.0,84,0.00,CLR,,0.00,WeatherDisplay:10.37,2013-08-19 04:31:00,
2013-08-19 00:36:00,62.0,57.1,30.11,WNW,287,2.3,2.3,84,0.00,CLR,,0.00,WeatherDisplay:10.37,2013-08-19 04:36:00,
2013-08-19 00:41:00,61.8,57.3,30.12,West,272,4.6,4.6,85,0.00,CLR,,0.00,WeatherDisplay:10.37,2013-08-19 04:41:00,
2013-08-19 00:46:00,62.0,57.5,30.11,WNW,302,2.3,2.3,85,0.00,CLR,,0.00,WeatherDisplay:10.37,2013-08-19 04:46:00,
2013-08-19 00:51:00,61.8,57.3,30.11,WNW,296,2.3,2.3,85,0.00,CLR,,0.00,WeatherDisplay:10.37,2013-08-19 04:51:00,
2013-08-19 00:56:00,61.9,57.4,30.11,West,281,3.5,3.5,85,0.00,CLR,,0.00,WeatherDisplay:10.37,2013-08-19 04:56:00,
2013-08-19 01:01:00,62.0,57.5,30.11,WNW,288,3.6,3.6,85,0.00,CLR,,0.00,WeatherDisplay:10.37,2013-08-19 05:01:00,
2013-08-19 01:06:00,61.9,57.4,30.11,West,280,3.5,3.5,85,0.00,CLR,,0.00,WeatherDisplay:10.37,2013-08-19 05:06:00,
2013-08-19 01:11:00,62.0,57.5,30.11,West,263,5.8,5.8,85,0.00,CLR,,0.00,WeatherDisplay:10.37,2013-08-19 05:11:00,
2013-08-19 01:16:00,62.0,57.1,30.11,WSW,258,3.5,3.5,84,0.00,CLR,,0.00,WeatherDisplay:10.37,2013-08-19 05:16:00,
2013-08-19 01:21:00,62.1,57.6,30.11,WNW,301,4.9,4.9,85,0.00,CLR,,0.00,WeatherDisplay:10.37,2013-08-19 05:21:00,
2013-08-19 01:26:00,62.4,58.2,30.11,ESE,104,2.5,2.5,86,0.00,CLR,,0.00,WeatherDisplay:10.37,2013-08-19 05:26:00,
2013-08-19 01:31:00,62.4,58.2,30.11,SSW,192,2.3,2.3,86,0.00,CLR,,0.00,WeatherDisplay:10.37,2013-08-19 05:31:00,
2013-08-19 01:36:00,62.3,58.1,30.11,WSW,251,3.5,3.5,86,0.00,CLR,,0.00,WeatherDisplay:10.37,2013-08-19 05:36:00,
2013-08-19 01:41:00,62.4,58.2,30.11,West,264,2.9,2.9,86,0.00,CLR,,0.00,WeatherDisplay:10.37,2013-08-19 05:41:00,
2013-08-19 01:46:00,62.4,58.2,30.11,WSW,240,4.1,4.1,86,0.00,CLR,,0.00,WeatherDisplay:10.37,2013-08-19 05:46:00,
2013-08-19 01:51:00,62.4,58.2,30.11,ESE,117,2.3,2.3,86,0.00,CLR,,0.00,WeatherDisplay:10.37,2013-08-19 05:51:00,
2013-08-19 01:56:00,62.4,58.2,30.11,WSW,250,2.7,2.7,86,0.00,CLR,,0.00,WeatherDisplay:10.37,2013-08-19 05:56:00,
2013-08-19 02:01:00,62.4,58.2,30.11,WNW,301,0.0,0.0,86,0.00,CLR,,0.00,WeatherDisplay:10.37,2013-08-19 06:01:00,
2013-08-19 02:06:00,62.5,58.3,30.11,WNW,301,0.0,0.0,86,0.00,CLR,,0.00,WeatherDisplay:10.37,2013-08-19 06:06:00,
2013-08-19 02:11:00,62.4,58.2,30.10,WNW,301,0.0,0.0,86,0.00,CLR,,0.00,WeatherDisplay:10.37,2013-08-19 06:11:00,
2013-08-19 02:16:00,62.2,57.7,30.10,WNW,301,0.0,0.0,85,0.00,CLR,,0.00,WeatherDisplay:10.37,2013-08-19 06:16:00,
2013-08-19 02:21:00,62.2,57.7,30.10,West,278,2.7,2.7,85,0.00,CLR,,0.00,WeatherDisplay:10.37,2013-08-19 06:21:00,
2013-08-19 02:26:00,62.2,57.7,30.10,SSW,208,2.3,2.3,85,0.00,CLR,,0.00,WeatherDisplay:10.37,2013-08-19 06:26:00,
2013-08-19 02:31:00,62.4,57.9,30.10,WSW,247,2.3,2.3,85,0.00,CLR,,0.00,WeatherDisplay:10.37,2013-08-19 06:31:00,
2013-08-19 02:36:00,62.2,57.7,30.10,SW,227,0.0,0.0,85,0.00,CLR,,0.00,WeatherDisplay:10.37,2013-08-19 06:36:00,
2013-08-19 02:41:00,62.1,57.6,30.10,SW,227,0.0,0.0,85,0.00,CLR,,0.00,WeatherDisplay:10.37,2013-08-19 06:41:00,
2013-08-19 02:46:00,62.1,57.6,30.10,SW,227,0.0,0.0,85,0.00,CLR,,0.00,WeatherDisplay:10.37,2013-08-19 06:46:00,
2013-08-19 02:51:00,62.0,57.8,30.10,SW,227,0.0,0.0,86,0.00,CLR,,0.00,WeatherDisplay:10.37,2013-08-19 06:51:00,
2013-08-19 02:56:00,62.0,58.1,30.10,West,278,3.7,3.7,87,0.00,CLR,,0.00,WeatherDisplay:10.37,2013-08-19 06:56:00,
2013-08-19 03:01:00,61.8,58.2,30.10,SSW,210,0.0,0.0,88,0.00,CLR,,0.00,WeatherDisplay:10.37,2013-08-19 07:01:00,
2013-08-19 03:06:00,61.5,58.0,30.10,SW,216,0.0,0.0,88,0.00,CLR,,0.00,WeatherDisplay:10.37,2013-08-19 07:06:00,
2013-08-19 03:11:00,61.3,58.1,30.10,SW,216,0.0,0.0,89,0.00,CLR,,0.00,WeatherDisplay:10.37,2013-08-19 07:11:00,
2013-08-19 03:16:00,61.3,58.1,30.10,SW,216,0.0,0.0,89,0.00,CLR,,0.00,WeatherDisplay:10.37,2013-08-19 07:16:00,
2013-08-19 03:21:00,61.1,57.9,30.09,SW,216,0.0,0.0,89,0.00,CLR,,0.00,WeatherDisplay:10.37,2013-08-19 07:21:00,
2013-08-19 03:26:00,61.1,58.2,30.09,NNE,21,4.6,4.6,90,0.00,CLR,,0.00,WeatherDisplay:10.37,2013-08-19 07:26:00,
2013-08-19 03:31:00,61.0,58.1,30.10,WSW,244,0.0,0.0,90,0.00,CLR,,0.00,WeatherDisplay:10.37,2013-08-19 07:31:00,
2013-08-19 03:36:00,60.9,58.0,30.10,West,275,1.1,1.1,90,0.00,CLR,,0.00,WeatherDisplay:10.37,2013-08-19 07:36:00,
2013-08-19 03:41:00,61.1,58.2,30.09,SE,133,0.0,0.0,90,0.00,CLR,,0.00,WeatherDisplay:10.37,2013-08-19 07:41:00,
2013-08-19 03:46:00,60.9,58.3,30.10,SE,131,1.2,0.0,91,0.00,CLR,,0.00,WeatherDisplay:10.37,2013-08-19 07:46:00,
2013-08-19 03:51:00,60.8,58.2,30.10,North,3,3.5,0.0,91,0.00,CLR,,0.00,WeatherDisplay:10.37,2013-08-19 07:51:00,
2013-08-19 03:56:00,61.0,58.4,30.10,NNE,24,3.5,3.5,91,0.00,CLR,,0.00,WeatherDisplay:10.37,2013-08-19 07:56:00,
2013-08-19 04:01:00,60.9,58.6,30.10,NNE,24,0.0,0.0,92,0.00,CLR,,0.00,WeatherDisplay:10.37,2013-08-19 08:01:00,
2013-08-19 04:06:00,60.9,58.6,30.10,NNE,24,0.0,0.0,92,0.00,CLR,,0.00,WeatherDisplay:10.37,2013-08-19 08:06:00,
2013-08-19 04:11:00,60.9,58.6,30.10,NNE,24,0.0,0.0,92,0.00,CLR,,0.00,WeatherDisplay:10.37,2013-08-19 08:11:00,
2013-08-19 04:16:00,60.8,58.5,30.09,NNE,24,0.0,0.0,92,0.00,CLR,,0.00,WeatherDisplay:10.37,2013-08-19 08:16:00,
2013-08-19 04:21:00,60.7,58.4,30.09,NNE,24,0.0,0.0,92,0.00,CLR,,0.00,WeatherDisplay:10.37,2013-08-19 08:21:00,
2013-08-19 04:26:00,60.5,58.2,30.10,NNE,24,0.0,0.0,92,0.00,CLR,,0.00,WeatherDisplay:10.37,2013-08-19 08:26:00,
2013-08-19 04:31:00,60.5,58.2,30.10,NNE,24,0.0,0.0,92,0.00,CLR,,0.00,WeatherDisplay:10.37,2013-08-19 08:31:00,
2013-08-19 04:36:00,60.8,58.8,30.10,NNE,24,0.0,0.0,93,0.00,CLR,,0.00,WeatherDisplay:10.37,2013-08-19 08:36:00,
2013-08-19 04:41:00,60.7,58.4,30.10,NNE,24,0.0,0.0,92,0.00,CLR,,0.00,WeatherDisplay:10.37,2013-08-19 08:41:00,
2013-08-19 04:46:00,60.5,58.5,30.10,NNE,24,0.0,0.0,93,0.00,CLR,,0.00,WeatherDisplay:10.37,2013-08-19 08:46:00,
2013-08-19 04:51:00,60.6,58.6,30.10,NNE,24,0.0,0.0,93,0.00,CLR,,0.00,WeatherDisplay:10.37,2013-08-19 08:51:00,
2013-08-19 04:56:00,60.5,58.5,30.10,NNE,24,0.0,0.0,93,0.00,CLR,,0.00,WeatherDisplay:10.37,2013-08-19 08:56:00,
2013-08-19 05:01:00,60.3,58.3,30.10,NNE,24,0.0,0.0,93,0.00,CLR,,0.00,WeatherDisplay:10.37,2013-08-19 09:01:00,
2013-08-19 05:06:00,60.3,58.3,30.10,NNE,24,0.0,0.0,93,0.00,CLR,,0.00,WeatherDisplay:10.37,2013-08-19 09:06:00,
2013-08-19 05:11:00,60.0,58.0,30.10,NNE,28,0.0,0.0,93,0.00,CLR,,0.00,WeatherDisplay:10.37,2013-08-19 09:11:00,
2013-08-19 05:16:00,60.1,58.1,30.11,NW,312,3.2,3.2,93,0.00,CLR,,0.00,WeatherDisplay:10.37,2013-08-19 09:16:00,
2013-08-19 05:21:00,60.5,58.8,30.10,East,85,1.2,1.2,94,0.00,CLR,,0.00,WeatherDisplay:10.37,2013-08-19 09:21:00,
2013-08-19 05:26:00,60.3,58.6,30.10,East,85,0.0,0.0,94,0.00,CLR,,0.00,WeatherDisplay:10.37,2013-08-19 09:26:00,
2013-08-19 05:31:00,60.4,58.7,30.10,East,85,0.0,0.0,94,0.00,CLR,,0.00,WeatherDisplay:10.37,2013-08-19 09:31:00,
2013-08-19 05:36:00,60.2,58.2,30.09,East,85,0.0,0.0,93,0.00,CLR,,0.00,WeatherDisplay:10.37,2013-08-19 09:36:00,
2013-08-19 05:41:00,60.2,58.5,30.10,East,96,0.0,0.0,94,0.00,CLR,,0.00,WeatherDisplay:10.37,2013-08-19 09:41:00,
2013-08-19 05:46:00,60.2,58.5,30.10,East,96,0.0,0.0,94,0.00,CLR,,0.00,WeatherDisplay:10.37,2013-08-19 09:46:00,
2013-08-19 05:51:00,60.0,58.3,30.10,East,96,0.0,0.0,94,0.00,CLR,,0.00,WeatherDisplay:10.37,2013-08-19 09:51:00,
2013-08-19 05:56:00,59.9,58.2,30.11,East,96,0.0,0.0,94,0.00,CLR,,0.00,WeatherDisplay:10.37,2013-08-19 09:56:00,
2013-08-19 06:01:00,59.9,58.2,30.11,East,96,0.0,0.0,94,0.00,CLR,,0.00,WeatherDisplay:10.37,2013-08-19 10:01:00,
2013-08-19 06:06:00,59.8,58.1,30.10,East,96,0.0,0.0,94,0.00,CLR,,0.00,WeatherDisplay:10.37,2013-08-19 10:06:00,
2013-08-19 06:11:00,59.7,58.0,30.10,East,96,0.0,0.0,94,0.00,CLR,,0.00,WeatherDisplay:10.37,2013-08-19 10:11:00,
2013-08-19 06:16:00,59.8,58.1,30.10,East,96,0.0,0.0,94,0.00,CLR,,0.00,WeatherDisplay:10.37,2013-08-19 10:16:00,
2013-08-19 06:21:00,59.7,58.0,30.10,East,96,0.0,0.0,94,0.00,CLR,,0.00,WeatherDisplay:10.37,2013-08-19 10:21:00,
2013-08-19 06:26:00,59.9,58.2,30.11,East,96,0.0,0.0,94,0.00,CLR,,0.00,WeatherDisplay:10.37,2013-08-19 10:26:00,
2013-08-19 06:31:00,60.0,58.3,30.10,East,96,0.0,0.0,94,0.00,CLR,,0.00,WeatherDisplay:10.37,2013-08-19 10:31:00,
2013-08-19 06:36:00,60.2,58.5,30.11,East,96,0.0,0.0,94,0.00,CLR,,0.00,WeatherDisplay:10.37,2013-08-19 10:36:00,
2013-08-19 06:41:00,60.2,58.5,30.11,East,96,0.0,0.0,94,0.00,CLR,,0.00,WeatherDisplay:10.37,2013-08-19 10:41:00,
2013-08-19 06:46:00,60.0,58.3,30.11,East,96,0.0,0.0,94,0.00,CLR,,0.00,WeatherDisplay:10.37,2013-08-19 10:46:00,
2013-08-19 06:51:00,59.8,58.1,30.11,East,96,0.0,0.0,94,0.00,CLR,,0.00,WeatherDisplay:10.37,2013-08-19 10:51:00,
2013-08-19 06:56:00,60.0,58.3,30.11,East,96,0.0,0.0,94,0.00,CLR,,0.00,WeatherDisplay:10.37,2013-08-19 10:56:00,
2013-08-19 07:01:00,60.0,58.3,30.11,East,96,0.0,0.0,94,0.00,CLR,,0.00,WeatherDisplay:10.37,2013-08-19 11:01:00,
2013-08-19 07:06:00,60.3,58.6,30.11,East,96,0.0,0.0,94,0.00,CLR,,0.00,WeatherDisplay:10.37,2013-08-19 11:06:00,
2013-08-19 07:11:00,60.3,58.9,30.11,East,96,0.0,0.0,95,0.00,CLR,,0.00,WeatherDisplay:10.37,2013-08-19 11:11:00,
2013-08-19 07:16:00,60.4,59.0,30.11,East,96,0.0,0.0,95,0.00,CLR,,0.00,WeatherDisplay:10.37,2013-08-19 11:16:00,
2013-08-19 07:21:00,60.7,59.3,30.11,East,96,0.0,0.0,95,0.00,CLR,,0.00,WeatherDisplay:10.37,2013-08-19 11:21:00,
2013-08-19 07:26:00,61.0,59.6,30.11,East,96,0.0,0.0,95,0.00,CLR,,0.00,WeatherDisplay:10.37,2013-08-19 11:26:00,
2013-08-19 07:31:00,61.0,59.6,30.11,East,96,0.0,0.0,95,0.00,CLR,,0.00,WeatherDisplay:10.37,2013-08-19 11:31:00,
2013-08-19 07:36:00,61.5,60.1,30.11,East,96,0.0,0.0,95,0.00,CLR,,0.00,WeatherDisplay:10.37,2013-08-19 11:36:00,
2013-08-19 07:41:00,61.6,60.2,30.11,East,96,0.0,0.0,95,0.00,CLR,,0.00,WeatherDisplay:10.37,2013-08-19 11:41:00,
2013-08-19 07:46:00,62.1,60.7,30.11,East,96,0.0,0.0,95,0.00,CLR,,0.00,WeatherDisplay:10.37,2013-08-19 11:46:00,
2013-08-19 07:51:00,62.5,60.8,30.11,East,96,0.0,0.0,94,0.00,CLR,,0.00,WeatherDisplay:10.37,2013-08-19 11:51:00,
2013-08-19 07:56:00,62.6,60.9,30.11,East,96,0.0,0.0,94,0.00,CLR,,0.00,WeatherDisplay:10.37,2013-08-19 11:56:00,
2013-08-19 08:01:00,62.5,60.8,30.10,East,96,0.0,0.0,94,0.00,CLR,,0.00,WeatherDisplay:10.37,2013-08-19 12:01:00,
2013-08-19 08:06:00,62.7,61.0,30.11,East,96,0.0,0.0,94,0.00,CLR,,0.00,WeatherDisplay:10.37,2013-08-19 12:06:00,
2013-08-19 08:11:00,62.7,61.0,30.11,East,96,0.0,0.0,94,0.00,CLR,,0.00,WeatherDisplay:10.37,2013-08-19 12:11:00,
2013-08-19 08:16:00,62.7,61.0,30.11,East,96,0.0,0.0,94,0.00,CLR,,0.00,WeatherDisplay:10.37,2013-08-19 12:16:00,
2013-08-19 08:21:00,62.7,60.7,30.11,East,96,0.0,0.0,93,0.00,CLR,,0.00,WeatherDisplay:10.37,2013-08-19 12:21:00,
2013-08-19 08:26:00,62.7,61.0,30.11,East,96,0.0,0.0,94,0.00,CLR,,0.00,WeatherDisplay:10.37,2013-08-19 12:26:00,
2013-08-19 08:31:00,62.9,61.2,30.10,East,96,0.0,0.0,94,0.00,CLR,,0.00,WeatherDisplay:10.37,2013-08-19 12:31:00,
2013-08-19 08:36:00,63.2,61.5,30.10,East,96,0.0,0.0,94,0.00,CLR,,0.00,WeatherDisplay:10.37,2013-08-19 12:36:00,
2013-08-19 08:41:00,63.5,61.5,30.10,East,96,0.0,0.0,93,0.00,CLR,,0.00,WeatherDisplay:10.37,2013-08-19 12:41:00,
2013-08-19 08:46:00,64.0,62.0,30.09,East,96,0.0,0.0,93,0.00,CLR,,0.00,WeatherDisplay:10.37,2013-08-19 12:46:00,
2013-08-19 08:51:00,64.3,62.3,30.09,East,96,0.0,0.0,93,0.00,CLR,,0.00,WeatherDisplay:10.37,2013-08-19 12:51:00,
2013-08-19 08:56:00,64.7,62.7,30.09,East,96,0.0,0.0,93,0.00,CLR,,0.00,WeatherDisplay:10.37,2013-08-19 12:56:00,
2013-08-19 09:01:00,65.1,62.1,30.09,SW,217,2.3,2.3,90,0.00,CLR,,0.00,WeatherDisplay:10.37,2013-08-19 13:01:00,
2013-08-19 09:06:00,65.9,63.2,30.09,SW,217,0.0,0.0,91,0.00,CLR,,0.00,WeatherDisplay:10.37,2013-08-19 13:06:00,
2013-08-19 09:11:00,66.7,63.1,30.09,SW,222,2.5,2.5,88,0.00,CLR,,0.00,WeatherDisplay:10.37,2013-08-19 13:11:00,
2013-08-19 09:16:00,67.6,64.0,30.08,SW,230,2.3,2.3,88,0.00,CLR,,0.00,WeatherDisplay:10.37,2013-08-19 13:16:00,
2013-08-19 09:21:00,68.4,63.8,30.08,SW,230,0.0,0.0,85,0.00,CLR,,0.00,WeatherDisplay:10.37,2013-08-19 13:21:00,
2013-08-19 09:26:00,69.2,63.5,30.08,SW,215,3.5,3.5,82,0.00,CLR,,0.00,WeatherDisplay:10.37,2013-08-19 13:26:00,
2013-08-19 09:31:00,69.9,63.1,30.08,WSW,241,0.0,0.0,79,0.00,CLR,,0.00,WeatherDisplay:10.37,2013-08-19 13:31:00,
2013-08-19 09:36:00,70.8,63.6,30.08,WSW,241,0.0,0.0,78,0.00,CLR,,0.00,WeatherDisplay:10.37,2013-08-19 13:36:00,
2013-08-19 09:41:00,72.0,63.3,30.07,ENE,76,2.3,2.3,74,0.00,CLR,,0.00,WeatherDisplay:10.37,2013-08-19 13:41:00,
2013-08-19 09:46:00,72.5,64.2,30.07,ENE,72,0.0,0.0,75,0.00,CLR,,0.00,WeatherDisplay:10.37,2013-08-19 13:46:00,
2013-08-19 09:51:00,73.2,64.8,30.07,ENE,72,0.0,0.0,75,0.00,CLR,,0.00,WeatherDisplay:10.37,2013-08-19 13:51:00,
2013-08-19 09:56:00,74.1,64.5,30.07,North,4,1.4,1.4,72,0.00,CLR,,0.00,WeatherDisplay:10.37,2013-08-19 13:56:00,
2013-08-19 10:01:00,74.5,63.7,30.06,West,260,2.5,2.5,69,0.00,CLR,,0.00,WeatherDisplay:10.37,2013-08-19 14:01:00,
2013-08-19 10:06:00,74.7,63.9,30.06,WSW,248,3.5,3.5,69,0.00,CLR,,0.00,WeatherDisplay:10.37,2013-08-19 14:06:00,
2013-08-19 10:11:00,74.8,64.4,30.07,WSW,251,3.5,3.5,70,0.00,CLR,,0.00,WeatherDisplay:10.37,2013-08-19 14:11:00,
2013-08-19 10:16:00,75.1,63.9,30.07,NW,325,0.0,0.0,68,0.00,CLR,,0.00,WeatherDisplay:10.37,2013-08-19 14:16:00,
2013-08-19 10:21:00,75.2,63.1,30.07,ESE,113,2.3,2.3,66,0.00,CLR,,0.00,WeatherDisplay:10.37,2013-08-19 14:21:00,
2013-08-19 10:26:00,75.4,65.0,30.07,WNW,295,0.0,0.0,70,0.00,CLR,,0.00,WeatherDisplay:10.37,2013-08-19 14:26:00,
2013-08-19 10:31:00,75.4,64.6,30.07,West,267,4.6,4.6,69,0.00,CLR,,0.00,WeatherDisplay:10.37,2013-08-19 14:31:00,
2013-08-19 10:36:00,75.9,64.6,30.07,NW,323,2.1,2.1,68,0.00,CLR,,0.00,WeatherDisplay:10.37,2013-08-19 14:36:00,
2013-08-19 10:41:00,76.0,64.3,30.07,NW,316,0.2,0.0,67,0.00,CLR,,0.00,WeatherDisplay:10.37,2013-08-19 14:41:00,
2013-08-19 10:46:00,76.1,65.2,30.07,NNW,328,3.6,3.6,69,0.00,CLR,,0.00,WeatherDisplay:10.37,2013-08-19 14:46:00,
2013-08-19 10:51:00,76.4,64.7,30.07,NW,306,0.0,0.0,67,0.00,CLR,,0.00,WeatherDisplay:10.37,2013-08-19 14:51:00,
2013-08-19 10:56:00,76.5,63.9,30.06,WSW,243,5.8,5.8,65,0.00,CLR,,0.00,WeatherDisplay:10.37,2013-08-19 14:56:00,
2013-08-19 11:01:00,76.5,64.3,30.06,WNW,287,3.4,3.4,66,0.00,CLR,,0.00,WeatherDisplay:10.37,2013-08-19 15:01:00,
2013-08-19 11:06:00,77.0,65.2,30.06,West,264,2.5,2.5,67,0.00,CLR,,0.00,WeatherDisplay:10.37,2013-08-19 15:06:00,
2013-08-19 11:11:00,77.3,64.2,30.06,SSW,196,4.6,4.6,64,0.00,CLR,,0.00,WeatherDisplay:10.37,2013-08-19 15:11:00,
2013-08-19 11:16:00,77.5,64.4,30.06,NNE,14,1.4,1.4,64,0.00,CLR,,0.00,WeatherDisplay:10.37,2013-08-19 15:16:00,
2013-08-19 11:22:00,77.9,64.8,30.06,SW,236,4.6,4.6,64,0.00,CLR,,0.00,WeatherDisplay:10.37,2013-08-19 15:22:00,
2013-08-19 11:28:00,78.2,64.6,30.06,West,278,2.0,6.0,63,0.00,CLR,,0.00,WeatherDisplay:10.37,2013-08-19 15:28:00,
2013-08-19 11:33:00,78.3,63.8,30.06,WSW,240,0.0,0.0,61,0.00,CLR,,0.00,WeatherDisplay:10.37,2013-08-19 15:33:00,
2013-08-19 11:38:00,77.9,62.0,30.06,NW,305,5.8,5.8,58,0.00,CLR,,0.00,WeatherDisplay:10.37,2013-08-19 15:38:00,
2013-08-19 11:43:00,77.7,63.7,30.06,NW,312,0.0,0.0,62,0.00,CLR,,0.00,WeatherDisplay:10.37,2013-08-19 15:43:00,
2013-08-19 11:48:00,77.3,63.3,30.05,NW,308,6.9,6.9,62,0.00,CLR,,0.00,WeatherDisplay:10.37,2013-08-19 15:48:00,
2013-08-19 11:53:00,77.2,64.6,30.06,East,90,0.0,0.0,65,0.00,CLR,,0.00,WeatherDisplay:10.37,2013-08-19 15:53:00,
2013-08-19 11:58:00,77.2,65.0,30.05,WSW,251,0.0,0.0,66,0.00,CLR,,0.00,WeatherDisplay:10.37,2013-08-19 15:58:00,
2013-08-19 12:03:00,76.9,63.8,30.06,WNW,294,2.5,2.5,64,0.00,FEW,,0.00,WeatherDisplay:10.37,2013-08-19 16:03:00,
2013-08-19 12:08:00,76.8,64.6,30.06,West,281,2.2,2.2,66,0.00,FEW,,0.00,WeatherDisplay:10.37,2013-08-19 16:08:00,
2013-08-19 12:13:00,76.9,64.3,30.05,NW,319,1.2,0.0,65,0.00,FEW,,0.00,WeatherDisplay:10.37,2013-08-19 16:13:00,
2013-08-19 12:18:00,77.2,65.0,30.05,West,261,2.3,0.0,66,0.00,FEW,,0.00,WeatherDisplay:10.37,2013-08-19 16:18:00,
2013-08-19 12:23:00,77.2,64.1,30.05,West,280,2.3,2.3,64,0.00,FEW,,0.00,WeatherDisplay:10.37,2013-08-19 16:23:00,
2013-08-19 12:28:00,77.3,64.2,30.05,WNW,291,5.3,5.3,64,0.00,FEW,,0.00,WeatherDisplay:10.37,2013-08-19 16:28:00,
2013-08-19 12:33:00,77.1,64.0,30.05,West,275,0.0,0.0,64,0.00,FEW,,0.00,WeatherDisplay:10.37,2013-08-19 16:33:00,
2013-08-19 12:39:00,76.9,65.1,30.04,West,281,0.0,0.0,67,0.00,FEW,,0.00,WeatherDisplay:10.37,2013-08-19 16:39:00,
2013-08-19 12:45:00,76.7,64.5,30.04,NW,308,2.3,2.3,66,0.00,FEW,,0.00,WeatherDisplay:10.37,2013-08-19 16:45:00,
2013-08-19 12:50:00,76.7,62.7,30.04,WNW,292,5.8,5.8,62,0.00,FEW,,0.00,WeatherDisplay:10.37,2013-08-19 16:50:00,
2013-08-19 12:55:00,76.6,63.1,30.04,NNW,337,4.6,4.6,63,0.00,FEW,,0.00,WeatherDisplay:10.37,2013-08-19 16:55:00,
2013-08-19 13:01:00,76.7,62.3,30.04,ENE,59,3.5,3.5,61,0.00,FEW,,0.00,WeatherDisplay:10.37,2013-08-19 17:01:00,
2013-08-19 13:07:00,76.4,62.9,30.04,SW,224,0.0,0.0,63,0.00,BKN,,0.00,WeatherDisplay:10.37,2013-08-19 17:07:00,
2013-08-19 13:12:00,76.3,63.3,30.04,SW,224,0.0,0.0,64,0.00,BKN,,0.00,WeatherDisplay:10.37,2013-08-19 17:12:00,
2013-08-19 13:17:00,76.4,63.4,30.04,NNW,342,1.4,1.4,64,0.00,BKN,,0.00,WeatherDisplay:10.37,2013-08-19 17:17:00,
2013-08-19 13:22:00,76.4,63.4,30.04,NE,38,0.0,0.0,64,0.00,BKN,,0.00,WeatherDisplay:10.37,2013-08-19 17:22:00,
2013-08-19 13:27:00,76.4,64.2,30.04,NE,38,0.0,0.0,66,0.00,BKN,,0.00,WeatherDisplay:10.37,2013-08-19 17:27:00,
2013-08-19 13:32:00,76.6,63.1,30.04,WNW,285,2.3,0.0,63,0.00,BKN,,0.00,WeatherDisplay:10.37,2013-08-19 17:32:00,
2013-08-19 13:37:00,76.6,64.4,30.04,SSW,203,0.0,0.0,66,0.00,BKN,,0.00,WeatherDisplay:10.37,2013-08-19 17:37:00,
2013-08-19 13:42:00,76.6,62.2,30.04,SW,230,0.0,0.0,61,0.00,BKN,,0.00,WeatherDisplay:10.37,2013-08-19 17:42:00,
2013-08-19 13:47:00,76.6,64.4,30.03,West,271,3.8,3.8,66,0.00,BKN,,0.00,WeatherDisplay:10.37,2013-08-19 17:47:00,
2013-08-19 13:52:00,76.8,63.7,30.03,West,274,1.2,0.0,64,0.00,BKN,,0.00,WeatherDisplay:10.37,2013-08-19 17:52:00,
2013-08-19 13:57:00,76.6,63.5,30.03,West,281,0.0,0.0,64,0.00,BKN,,0.00,WeatherDisplay:10.37,2013-08-19 17:57:00,
2013-08-19 14:02:00,76.5,62.1,30.03,West,281,0.0,0.0,61,0.00,FEW,,0.00,WeatherDisplay:10.37,2013-08-19 18:02:00,
2013-08-19 14:08:00,76.5,63.4,30.03,West,280,0.0,1.0,64,0.00,FEW,,0.00,WeatherDisplay:10.37,2013-08-19 18:08:00,
2013-08-19 14:13:00,76.6,65.3,30.03,West,280,0.0,1.0,68,0.00,FEW,,0.00,WeatherDisplay:10.37,2013-08-19 18:13:00,
2013-08-19 14:18:00,76.4,62.9,30.03,WSW,253,2.3,2.3,63,0.00,FEW,,0.00,WeatherDisplay:10.37,2013-08-19 18:18:00,
2013-08-19 14:23:00,76.4,63.4,30.03,WSW,253,0.0,0.0,64,0.00,FEW,,0.00,WeatherDisplay:10.37,2013-08-19 18:23:00,
2013-08-19 14:28:00,76.2,63.6,30.03,West,265,0.0,0.0,65,0.00,FEW,,0.00,WeatherDisplay:10.37,2013-08-19 18:28:00,
2013-08-19 14:33:00,76.4,63.8,30.02,West,270,2.3,0.0,65,0.00,FEW,,0.00,WeatherDisplay:10.37,2013-08-19 18:33:00,
2013-08-19 14:38:00,76.6,64.4,30.02,West,275,1.2,1.2,66,0.00,FEW,,0.00,WeatherDisplay:10.37,2013-08-19 18:38:00,
2013-08-19 14:43:00,76.2,62.3,30.02,West,281,3.5,3.5,62,0.00,FEW,,0.00,WeatherDisplay:10.37,2013-08-19 18:43:00,
2013-08-19 14:48:00,76.4,64.2,30.02,WNW,282,0.0,0.0,66,0.00,FEW,,0.00,WeatherDisplay:10.37,2013-08-19 18:48:00,
2013-08-19 14:53:00,76.5,64.8,30.02,NNW,337,3.8,3.8,67,0.00,FEW,,0.00,WeatherDisplay:10.37,2013-08-19 18:53:00,
2013-08-19 14:58:00,76.3,64.1,30.02,NNW,332,0.0,0.0,66,0.00,FEW,,0.00,WeatherDisplay:10.37,2013-08-19 18:58:00,
2013-08-19 15:03:00,76.3,64.6,30.02,WSW,239,0.0,0.0,67,0.00,CLR,,0.00,WeatherDisplay:10.37,2013-08-19 19:03:00,
2013-08-19 15:08:00,75.9,63.8,30.02,WSW,239,0.0,0.0,66,0.00,CLR,,0.00,WeatherDisplay:10.37,2013-08-19 19:08:00,
2013-08-19 15:13:00,75.8,63.7,30.02,WSW,239,0.0,0.0,66,0.00,CLR,,0.00,WeatherDisplay:10.37,2013-08-19 19:13:00,
2013-08-19 15:18:00,75.8,64.1,30.01,WSW,239,0.0,0.0,67,0.00,CLR,,0.00,WeatherDisplay:10.37,2013-08-19 19:18:00,
2013-08-19 15:23:00,75.7,63.6,30.02,WNW,295,0.0,0.0,66,0.00,CLR,,0.00,WeatherDisplay:10.37,2013-08-19 19:23:00,
2013-08-19 15:28:00,75.5,64.7,30.01,WNW,295,0.0,0.0,69,0.00,CLR,,0.00,WeatherDisplay:10.37,2013-08-19 19:28:00,
2013-08-19 15:33:00,75.3,64.9,30.02,West,274,2.3,2.3,70,0.00,CLR,,0.00,WeatherDisplay:10.37,2013-08-19 19:33:00,
2013-08-19 15:38:00,75.3,64.5,30.02,West,274,0.0,0.0,69,0.00,CLR,,0.00,WeatherDisplay:10.37,2013-08-19 19:38:00,
2013-08-19 15:43:00,75.2,64.8,30.01,SW,234,3.5,3.5,70,0.00,CLR,,0.00,WeatherDisplay:10.37,2013-08-19 19:43:00,
2013-08-19 15:48:00,75.4,64.6,30.01,WSW,257,3.8,3.8,69,0.00,CLR,,0.00,WeatherDisplay:10.37,2013-08-19 19:48:00,
2013-08-19 15:53:00,75.5,64.2,30.01,WSW,250,4.0,4.0,68,0.00,CLR,,0.00,WeatherDisplay:10.37,2013-08-19 19:53:00,
2013-08-19 15:58:00,75.9,65.4,30.01,WNW,298,5.8,5.8,70,0.00,CLR,,0.00,WeatherDisplay:10.37,2013-08-19 19:58:00,
2013-08-19 16:03:00,75.8,63.7,30.00,WSW,240,4.6,4.6,66,0.00,FEW,,0.00,WeatherDisplay:10.37,2013-08-19 20:03:00,
2013-08-19 16:08:00,75.6,64.7,30.01,WSW,240,0.0,0.0,69,0.00,FEW,,0.00,WeatherDisplay:10.37,2013-08-19 20:08:00,
2013-08-19 16:13:00,75.5,65.1,30.01,WSW,247,1.2,1.2,70,0.00,FEW,,0.00,WeatherDisplay:10.37,2013-08-19 20:13:00,
2013-08-19 16:18:00,75.3,65.7,30.01,SW,236,1.6,1.6,72,0.00,FEW,,0.00,WeatherDisplay:10.37,2013-08-19 20:18:00,
2013-08-19 16:23:00,75.0,65.8,30.01,West,275,0.0,0.0,73,0.00,FEW,,0.00,WeatherDisplay:10.37,2013-08-19 20:23:00,
2013-08-19 16:28:00,74.8,65.2,30.01,SW,219,2.3,2.3,72,0.00,FEW,,0.00,WeatherDisplay:10.37,2013-08-19 20:28:00,
2013-08-19 16:34:00,74.8,66.0,30.01,West,265,2.4,2.4,74,0.00,FEW,,0.00,WeatherDisplay:10.37,2013-08-19 20:34:00,
2013-08-19 16:39:00,74.5,66.1,30.01,West,277,3.3,3.3,75,0.00,FEW,,0.00,WeatherDisplay:10.37,2013-08-19 20:39:00,
2013-08-19 16:44:00,74.4,66.4,30.01,West,274,1.6,1.6,76,0.00,FEW,,0.00,WeatherDisplay:10.37,2013-08-19 20:44:00,
2013-08-19 16:49:00,74.3,66.3,30.01,WSW,256,1.8,1.8,76,0.00,FEW,,0.00,WeatherDisplay:10.37,2013-08-19 20:49:00,
2013-08-19 16:54:00,74.2,66.2,30.01,SW,233,0.0,0.0,76,0.00,FEW,,0.00,WeatherDisplay:10.37,2013-08-19 20:54:00,
2013-08-19 16:59:00,74.3,66.3,30.01,WSW,257,2.6,2.6,76,0.00,FEW,,0.00,WeatherDisplay:10.37,2013-08-19 20:59:00,
2013-08-19 17:04:00,74.5,66.5,30.01,WSW,251,3.5,3.5,76,0.00,CLR,,0.00,WeatherDisplay:10.37,2013-08-19 21:04:00,
2013-08-19 17:09:00,74.6,65.8,30.01,WSW,241,1.3,1.3,74,0.00,CLR,,0.00,WeatherDisplay:10.37,2013-08-19 21:09:00,
2013-08-19 17:14:00,74.8,66.0,30.01,WSW,251,3.2,3.2,74,0.00,CLR,,0.00,WeatherDisplay:10.37,2013-08-19 21:14:00,
2013-08-19 17:19:00,75.1,66.3,30.01,SW,226,7.3,7.3,74,0.00,CLR,,0.00,WeatherDisplay:10.37,2013-08-19 21:19:00,
2013-08-19 17:24:00,75.3,66.1,30.02,WSW,247,4.7,4.7,73,0.00,CLR,,0.00,WeatherDisplay:10.37,2013-08-19 21:24:00,
2013-08-19 17:29:00,75.7,66.5,30.01,West,267,3.0,3.0,73,0.00,CLR,,0.00,WeatherDisplay:10.37,2013-08-19 21:29:00,
2013-08-19 17:34:00,75.6,64.7,30.01,SSW,203,6.9,6.9,69,0.00,CLR,,0.00,WeatherDisplay:10.37,2013-08-19 21:34:00,
2013-08-19 17:39:00,75.5,65.9,30.01,WSW,257,4.6,4.6,72,0.00,CLR,,0.00,WeatherDisplay:10.37,2013-08-19 21:39:00,
2013-08-19 17:44:00,75.6,66.0,30.01,West,281,6.9,6.9,72,0.00,CLR,,0.00,WeatherDisplay:10.37,2013-08-19 21:44:00,
2013-08-19 17:49:00,75.1,65.5,30.01,SW,229,4.0,4.0,72,0.00,CLR,,0.00,WeatherDisplay:10.37,2013-08-19 21:49:00,
2013-08-19 17:54:00,75.1,66.3,30.01,West,260,3.5,0.0,74,0.00,CLR,,0.00,WeatherDisplay:10.37,2013-08-19 21:54:00,
2013-08-19 17:59:00,75.2,66.4,30.01,WSW,244,3.9,3.9,74,0.00,CLR,,0.00,WeatherDisplay:10.37,2013-08-19 21:59:00,
2013-08-19 18:05:00,74.9,66.1,30.01,WNW,295,4.6,4.6,74,0.00,CLR,,0.00,WeatherDisplay:10.37,2013-08-19 22:05:00,
2013-08-19 18:10:00,74.8,66.0,30.01,West,263,4.6,4.6,74,0.00,CLR,,0.00,WeatherDisplay:10.37,2013-08-19 22:10:00,
2013-08-19 18:15:00,74.8,66.4,30.01,West,264,2.4,2.4,75,0.00,CLR,,0.00,WeatherDisplay:10.37,2013-08-19 22:15:00,
2013-08-19 18:20:00,74.8,66.8,30.01,SW,215,3.9,3.9,76,0.00,-RA,,0.00,WeatherDisplay:10.37,2013-08-19 22:20:00,
2013-08-19 18:25:00,74.7,66.3,30.01,WSW,254,4.6,4.6,75,0.00,-RA,,0.00,WeatherDisplay:10.37,2013-08-19 22:25:00,
2013-08-19 18:30:00,74.7,66.3,30.01,West,281,4.2,4.2,75,0.00,-RA,,0.00,WeatherDisplay:10.37,2013-08-19 22:30:00,
2013-08-19 18:35:00,74.4,65.6,30.01,West,268,3.5,3.5,74,0.00,-RA,,0.00,WeatherDisplay:10.37,2013-08-19 22:35:00,
2013-08-19 18:40:00,74.5,66.1,30.01,West,277,2.5,2.5,75,0.00,-RA,,0.00,WeatherDisplay:10.37,2013-08-19 22:40:00,
2013-08-19 18:45:00,74.4,66.4,30.01,WSW,237,2.3,2.3,76,0.00,-RA,,0.00,WeatherDisplay:10.37,2013-08-19 22:45:00,
2013-08-19 18:50:00,74.1,66.1,30.01,WSW,243,3.5,3.5,76,0.00,-RA,,0.00,WeatherDisplay:10.37,2013-08-19 22:50:00,
2013-08-19 18:55:00,73.9,66.3,30.01,WSW,254,0.0,0.0,77,0.00,-RA,,0.00,WeatherDisplay:10.37,2013-08-19 22:55:00,
2013-08-19 19:00:00,73.7,66.1,30.00,WSW,254,0.0,0.0,77,0.00,-RA,,0.00,WeatherDisplay:10.37,2013-08-19 23:00:00,
2013-08-19 19:06:00,73.6,66.4,30.01,WSW,246,0.0,0.0,78,0.00,BKN,,0.00,WeatherDisplay:10.37,2013-08-19 23:06:00,
2013-08-19 19:11:00,73.5,66.3,30.01,West,271,2.6,2.6,78,0.00,BKN,,0.00,WeatherDisplay:10.37,2013-08-19 23:11:00,
2013-08-19 19:16:00,73.3,66.1,30.01,SSW,199,0.0,0.0,78,0.00,BKN,,0.00,WeatherDisplay:10.37,2013-08-19 23:16:00,
2013-08-19 19:21:00,73.3,66.1,30.01,WSW,240,0.0,0.0,78,0.00,BKN,,0.00,WeatherDisplay:10.37,2013-08-19 23:21:00,
2013-08-19 19:26:00,72.9,65.7,30.01,WSW,240,0.0,0.0,78,0.00,BKN,,0.00,WeatherDisplay:10.37,2013-08-19 23:26:00,
2013-08-19 19:31:00,72.7,65.8,30.01,WSW,253,1.6,1.6,79,0.00,BKN,,0.00,WeatherDisplay:10.37,2013-08-19 23:31:00,
2013-08-19 19:36:00,72.5,65.7,30.01,West,260,2.1,2.1,79,0.00,BKN,,0.00,WeatherDisplay:10.37,2013-08-19 23:36:00,
2013-08-19 19:41:00,72.3,65.8,30.00,SW,215,2.5,2.5,80,0.00,BKN,,0.00,WeatherDisplay:10.37,2013-08-19 23:41:00,
2013-08-19 19:46:00,72.1,66.0,30.00,SW,215,0.0,0.0,81,0.00,BKN,,0.00,WeatherDisplay:10.37,2013-08-19 23:46:00,
2013-08-19 19:51:00,71.6,65.5,30.00,SW,215,0.0,0.0,81,0.00,BKN,,0.00,WeatherDisplay:10.37,2013-08-19 23:51:00,
2013-08-19 19:56:00,71.6,65.9,30.00,SW,234,1.6,1.6,82,0.00,BKN,,0.00,WeatherDisplay:10.37,2013-08-19 23:56:00,
2013-08-19 20:01:00,71.3,65.6,30.00,SW,236,2.3,2.3,82,0.00,BKN,,0.00,WeatherDisplay:10.37,2013-08-20 00:01:00,
2013-08-19 20:06:00,71.0,65.3,30.00,SW,236,0.0,0.0,82,0.00,BKN,,0.00,WeatherDisplay:10.37,2013-08-20 00:06:00,
2013-08-19 20:11:00,71.0,65.3,30.00,WSW,253,0.0,0.0,82,0.00,BKN,,0.00,WeatherDisplay:10.37,2013-08-20 00:11:00,
2013-08-19 20:16:00,70.9,65.2,30.01,WSW,247,2.1,2.1,82,0.00,BKN,,0.00,WeatherDisplay:10.37,2013-08-20 00:16:00,
2013-08-19 20:21:00,70.8,65.1,30.01,West,271,2.3,2.3,82,0.00,BKN,,0.00,WeatherDisplay:10.37,2013-08-20 00:21:00,
2013-08-19 20:26:00,70.7,65.0,30.01,SW,232,0.0,0.0,82,0.00,BKN,,0.00,WeatherDisplay:10.37,2013-08-20 00:26:00,
2013-08-19 20:31:00,70.7,65.3,30.01,West,272,2.3,2.3,83,0.00,BKN,,0.00,WeatherDisplay:10.37,2013-08-20 00:31:00,
2013-08-19 20:36:00,70.6,65.2,30.01,WSW,256,3.0,3.0,83,0.00,BKN,,0.00,WeatherDisplay:10.37,2013-08-20 00:36:00,
2013-08-19 20:41:00,70.8,65.4,30.01,West,277,1.7,1.7,83,0.00,BKN,,0.00,WeatherDisplay:10.37,2013-08-20 00:41:00,
2013-08-19 20:46:00,70.8,65.4,30.01,WSW,248,2.3,2.3,83,0.00,BKN,,0.00,WeatherDisplay:10.37,2013-08-20 00:46:00,
2013-08-19 20:51:00,70.6,65.2,30.01,West,270,2.3,2.3,83,0.00,BKN,,0.00,WeatherDisplay:10.37,2013-08-20 00:51:00,
2013-08-19 20:56:00,70.4,65.0,30.01,WSW,254,3.4,3.4,83,0.00,BKN,,0.00,WeatherDisplay:10.37,2013-08-20 00:56:00,
2013-08-19 21:01:00,70.4,65.0,30.02,West,265,2.4,2.4,83,0.00,SCT,,0.00,WeatherDisplay:10.37,2013-08-20 01:01:00,
2013-08-19 21:06:00,70.5,65.1,30.02,SW,224,2.3,2.3,83,0.00,SCT,,0.00,WeatherDisplay:10.37,2013-08-20 01:06:00,
2013-08-19 21:11:00,70.4,65.0,30.02,SW,224,0.0,0.0,83,0.00,SCT,,0.00,WeatherDisplay:10.37,2013-08-20 01:11:00,
2013-08-19 21:16:00,70.4,65.0,30.02,SW,224,0.0,0.0,83,0.00,SCT,,0.00,WeatherDisplay:10.37,2013-08-20 01:16:00,
2013-08-19 21:21:00,70.2,64.8,30.03,SW,224,0.0,0.0,83,0.00,SCT,,0.00,WeatherDisplay:10.37,2013-08-20 01:21:00,
2013-08-19 21:26:00,70.2,64.8,30.03,NNW,332,0.0,0.0,83,0.00,SCT,,0.00,WeatherDisplay:10.37,2013-08-20 01:26:00,
2013-08-19 21:31:00,70.1,64.7,30.03,NNW,332,0.0,0.0,83,0.00,SCT,,0.00,WeatherDisplay:10.37,2013-08-20 01:31:00,
2013-08-19 21:36:00,70.1,64.7,30.03,SSW,203,1.2,0.0,83,0.00,SCT,,0.00,WeatherDisplay:10.37,2013-08-20 01:36:00,
2013-08-19 21:41:00,70.1,65.1,30.03,WSW,251,2.3,2.3,84,0.00,SCT,,0.00,WeatherDisplay:10.37,2013-08-20 01:41:00,
2013-08-19 21:46:00,70.0,65.0,30.03,WSW,237,1.7,1.7,84,0.00,SCT,,0.00,WeatherDisplay:10.37,2013-08-20 01:46:00,
2013-08-19 21:51:00,70.0,65.0,30.03,WSW,254,2.4,2.4,84,0.00,SCT,,0.00,WeatherDisplay:10.37,2013-08-20 01:51:00,
2013-08-19 21:56:00,69.6,64.9,30.03,SW,233,3.5,3.5,85,0.00,SCT,,0.00,WeatherDisplay:10.37,2013-08-20 01:56:00,
2013-08-19 22:01:00,69.5,64.8,30.03,SSW,202,1.2,1.2,85,0.00,SCT,,0.00,WeatherDisplay:10.37,2013-08-20 02:01:00,
2013-08-19 22:06:00,69.5,64.8,30.03,WNW,282,1.4,1.4,85,0.00,SCT,,0.00,WeatherDisplay:10.37,2013-08-20 02:06:00,
2013-08-19 22:11:00,69.4,64.7,30.03,West,281,2.3,2.3,85,0.00,SCT,,0.00,WeatherDisplay:10.37,2013-08-20 02:11:00,
2013-08-19 22:16:00,69.0,64.7,30.03,WSW,248,0.0,0.0,86,0.00,CLR,,0.00,WeatherDisplay:10.37,2013-08-20 02:16:00,
2013-08-19 22:21:00,69.1,64.8,30.03,WSW,248,0.0,0.0,86,0.00,CLR,,0.00,WeatherDisplay:10.37,2013-08-20 02:21:00,
2013-08-19 22:26:00,69.0,64.7,30.03,WSW,248,0.0,0.0,86,0.00,CLR,,0.00,WeatherDisplay:10.37,2013-08-20 02:26:00,
2013-08-19 22:31:00,68.7,64.4,30.03,West,267,2.8,2.8,86,0.00,CLR,,0.00,WeatherDisplay:10.37,2013-08-20 02:31:00,
2013-08-19 22:36:00,68.7,64.7,30.03,SSW,195,0.0,0.0,87,0.00,CLR,,0.00,WeatherDisplay:10.37,2013-08-20 02:36:00,
2013-08-19 22:41:00,68.5,64.5,30.03,SSW,195,0.0,0.0,87,0.00,CLR,,0.00,WeatherDisplay:10.37,2013-08-20 02:41:00,
2013-08-19 22:46:00,68.4,64.4,30.03,SSW,195,0.0,0.0,87,0.00,CLR,,0.00,WeatherDisplay:10.37,2013-08-20 02:46:00,
2013-08-19 22:51:00,68.4,64.4,30.03,SSW,195,0.0,0.0,87,0.00,CLR,,0.00,WeatherDisplay:10.37,2013-08-20 02:51:00,
2013-08-19 22:56:00,68.0,64.0,30.03,SSW,195,0.0,0.0,87,0.00,CLR,,0.00,WeatherDisplay:10.37,2013-08-20 02:56:00,
2013-08-19 23:01:00,68.2,64.2,30.03,SW,227,0.0,0.0,87,0.00,FEW,,0.00,WeatherDisplay:10.37,2013-08-20 03:01:00,
2013-08-19 23:06:00,67.9,63.9,30.03,SW,227,0.0,0.0,87,0.00,FEW,,0.00,WeatherDisplay:10.37,2013-08-20 03:06:00,
2013-08-19 23:11:00,67.7,63.7,30.03,SW,227,0.0,0.0,87,0.00,FEW,,0.00,WeatherDisplay:10.37,2013-08-20 03:11:00,
2013-08-19 23:16:00,67.6,63.6,30.03,SW,227,0.0,0.0,87,0.00,FEW,,0.00,WeatherDisplay:10.37,2013-08-20 03:16:00,
2013-08-19 23:21:00,67.5,63.9,30.04,SW,227,0.0,0.0,88,0.00,FEW,,0.00,WeatherDisplay:10.37,2013-08-20 03:21:00,
2013-08-19 23:26:00,67.3,63.7,30.04,North,359,2.3,2.3,88,0.00,FEW,,0.00,WeatherDisplay:10.37,2013-08-20 03:26:00,
2013-08-19 23:31:00,67.2,63.6,30.04,North,7,2.5,2.5,88,0.00,FEW,,0.00,WeatherDisplay:10.37,2013-08-20 03:31:00,
2013-08-19 23:36:00,67.0,63.4,30.04,WNW,301,0.0,0.0,88,0.00,FEW,,0.00,WeatherDisplay:10.37,2013-08-20 03:36:00,
2013-08-19 23:41:00,66.9,63.3,30.03,NE,41,0.0,0.0,88,0.00,FEW,,0.00,WeatherDisplay:10.37,2013-08-20 03:41:00,
2013-08-19 23:47:00,66.7,63.1,30.03,South,181,0.0,0.0,88,0.00,FEW,,0.00,WeatherDisplay:10.37,2013-08-20 03:47:00,
2013-08-19 23:52:00,66.7,63.1,30.04,South,181,0.0,0.0,88,0.00,FEW,,0.00,WeatherDisplay:10.37,2013-08-20 03:52:00,
2013-08-19 23:57:00,66.7,63.1,30.04,West,274,0.0,0.0,88,0.00,FEW,,0.00,WeatherDisplay:10.37,2013-08-20 03:57:00,